Location: Wien
(48.2082°N, 16.3738°E)
Time: 13:10:31
(UTC+02:00)

Tiros 1 despin weight - Pass Details

Date: 17 September 2024
Orbit: 573 x 615 km, 48.2° (Epoch: 06 October)

Event Time Altitude Azimuth Distance (km) Brightness Sun altitude
Rises 06:04:38 0° 269° (W) 2,880 - -5.8°
Exits shadow 06:06:12 - 270° (W) 2,266 ? -5.5°
Reaches altitude 10° 06:06:57 10° 270° (W) 1,979 ? -5.4°
Maximum altitude 06:11:31 89° 352° (N) 624 ? -4.7°
Drops below altitude 10° 06:16:05 10° 91° (E) 1,981 ? -3.9°
Sets 06:18:24 0° 91° (E) 2,884 ? -3.5°
